Time,TemperatureF,DewpointF,PressureIn,WindDirection,WindDirectionDegrees,WindSpeedMPH,WindSpeedGustMPH,Humidity,HourlyPrecipIn,Conditions,Clouds,dailyrainin,SoftwareType,DateUTC
2015-08-03 00:13:00,69.0,54.0,29.82,NE,39,1.0,3.0,58,-99.99,,,-99.99,,2015-08-03 07:13:00,
2015-08-03 00:23:00,69.0,54.0,29.82,NE,39,1.0,3.0,58,-99.99,,,-99.99,,2015-08-03 07:23:00,
2015-08-03 00:33:00,69.0,54.0,29.82,NE,39,1.0,3.0,58,-99.99,,,-99.99,,2015-08-03 07:33:00,
2015-08-03 00:43:00,69.0,54.0,29.82,NE,39,1.0,3.0,58,-99.99,,,-99.99,,2015-08-03 07:43:00,
2015-08-03 03:03:00,66.0,50.0,29.82,North,0,0.0,1.0,57,-99.99,,,-99.99,,2015-08-03 10:03:00,
2015-08-03 03:12:00,66.0,50.0,29.82,North,0,0.0,1.0,57,-99.99,,,-99.99,,2015-08-03 10:12:00,
2015-08-03 03:23:00,66.0,50.0,29.82,North,0,0.0,1.0,57,-99.99,,,-99.99,,2015-08-03 10:23:00,
2015-08-03 03:33:00,65.0,50.0,29.83,North,0,0.0,1.0,58,-99.99,,,-99.99,,2015-08-03 10:33:00,
2015-08-03 03:43:00,65.0,50.0,29.83,North,0,0.0,1.0,58,-99.99,,,-99.99,,2015-08-03 10:43:00,
2015-08-03 03:53:00,65.0,49.0,29.82,North,0,0.0,1.0,56,-99.99,,,-99.99,,2015-08-03 10:53:00,
2015-08-03 04:03:00,66.0,50.0,29.82,North,0,0.0,1.0,57,-99.99,,,-99.99,,2015-08-03 11:03:00,
2015-08-03 04:12:00,65.0,49.0,29.82,North,0,0.0,1.0,57,-99.99,,,-99.99,,2015-08-03 11:12:00,
2015-08-03 04:23:00,65.0,49.0,29.82,North,0,0.0,1.0,57,-99.99,,,-99.99,,2015-08-03 11:23:00,
2015-08-03 04:33:00,65.0,49.0,29.82,North,0,0.0,3.0,56,-99.99,,,-99.99,,2015-08-03 11:33:00,
2015-08-03 04:43:00,65.0,49.0,29.82,North,0,0.0,3.0,56,-99.99,,,-99.99,,2015-08-03 11:43:00,
2015-08-03 04:53:00,65.0,48.0,29.82,North,0,0.0,3.0,55,-99.99,,,-99.99,,2015-08-03 11:53:00,
2015-08-03 05:03:00,65.0,48.0,29.82,North,0,0.0,3.0,55,-99.99,,,-99.99,,2015-08-03 12:03:00,
2015-08-03 05:13:00,65.0,48.0,29.82,North,0,0.0,3.0,55,-99.99,,,-99.99,,2015-08-03 12:13:00,
2015-08-03 05:23:00,65.0,49.0,29.83,North,0,0.0,3.0,57,-99.99,,,-99.99,,2015-08-03 12:23:00,
2015-08-03 05:33:00,65.0,50.0,29.83,North,0,0.0,1.0,59,-99.99,,,-99.99,,2015-08-03 12:33:00,
2015-08-03 05:44:00,65.0,50.0,29.83,North,0,0.0,1.0,59,-99.99,,,-99.99,,2015-08-03 12:44:00,
2015-08-03 05:54:00,63.0,53.0,29.83,North,0,0.0,1.0,69,-99.99,,,-99.99,,2015-08-03 12:54:00,
2015-08-03 06:03:00,63.0,53.0,29.83,North,0,0.0,1.0,69,-99.99,,,-99.99,,2015-08-03 13:03:00,
2015-08-03 06:13:00,63.0,53.0,29.83,North,0,0.0,1.0,69,-99.99,,,-99.99,,2015-08-03 13:13:00,
2015-08-03 06:23:00,63.0,53.0,29.83,North,0,0.0,1.0,69,-99.99,,,-99.99,,2015-08-03 13:23:00,
2015-08-03 06:33:00,63.0,53.0,29.83,North,0,0.0,1.0,69,-99.99,,,-99.99,,2015-08-03 13:33:00,
2015-08-03 06:41:00,60.0,53.0,29.84,North,0,0.0,1.0,79,-99.99,,,-99.99,,2015-08-03 13:41:00,
2015-08-03 06:43:00,60.0,53.0,29.84,North,0,0.0,4.0,78,-99.99,,,-99.99,,2015-08-03 13:43:00,
2015-08-03 06:53:00,60.0,53.0,29.84,North,0,0.0,1.0,79,-99.99,,,-99.99,,2015-08-03 13:53:00,
2015-08-03 07:03:00,60.0,53.0,29.84,North,0,0.0,1.0,79,-99.99,,,-99.99,,2015-08-03 14:03:00,
2015-08-03 07:12:00,60.0,53.0,29.84,North,0,0.0,1.0,79,-99.99,,,-99.99,,2015-08-03 14:12:00,
2015-08-03 07:23:00,60.0,53.0,29.84,North,0,0.0,1.0,79,-99.99,,,-99.99,,2015-08-03 14:23:00,
2015-08-03 07:33:00,60.0,53.0,29.84,North,0,0.0,1.0,79,-99.99,,,-99.99,,2015-08-03 14:33:00,
2015-08-03 07:53:00,61.0,53.0,29.85,North,0,0.0,2.0,74,-99.99,,,-99.99,,2015-08-03 14:53:00,
2015-08-03 08:02:00,61.0,53.0,29.85,North,0,0.0,2.0,74,-99.99,,,-99.99,,2015-08-03 15:02:00,
2015-08-03 08:12:00,63.0,54.0,29.86,North,0,0.0,1.0,72,-99.99,,,-99.99,,2015-08-03 15:12:00,
2015-08-03 08:23:00,64.0,54.0,29.86,North,0,0.0,1.0,71,-99.99,,,-99.99,,2015-08-03 15:23:00,
2015-08-03 08:33:00,64.0,54.0,29.86,North,0,0.0,2.0,71,-99.99,,,-99.99,,2015-08-03 15:33:00,
2015-08-03 08:53:00,65.0,54.0,29.87,North,0,0.0,2.0,67,-99.99,,,-99.99,,2015-08-03 15:53:00,
2015-08-03 09:02:00,65.0,54.0,29.87,South,176,2.0,4.0,68,-99.99,,,-99.99,,2015-08-03 16:02:00,
2015-08-03 09:20:00,65.0,55.0,29.87,North,0,0.0,-999.0,70,-99.99,,,-99.99,,2015-08-03 16:20:00,
2015-08-03 09:33:00,65.0,55.0,29.87,North,0,0.0,4.0,71,-99.99,,,-99.99,,2015-08-03 16:33:00,
2015-08-03 09:43:00,65.0,55.0,29.87,North,0,0.0,4.0,71,-99.99,,,-99.99,,2015-08-03 16:43:00,